Home   Weather   Newport   Past weeks

Flag for United Kingdom Past Weather in Newport, Wales, United Kingdom — Yesterday and Last 2 Weeks

Now
30 °F

Fog.


Feels Like: 23 °F
Forecast: 27 / 38 °F
Wind: 8 mph from East

Location: Bristol / Lulsgate

Current Time: Jan 21, 2017 at 11:10:20 am

Latest Report: Jan 21, 2017 at 10:50 am


Visibility: 4 mi

Pressure: 30.33 "Hg

Humidity: 93%

Dew Point: 28 °F

Location of NewportLocation

Past Weather in Newport — Graph

°F

Newport Temperature Yesterday

Maximum temperature yesterday: 39 °F (at 1:20 pm)
Minimum temperature yesterday: 27 °F (at 11:50 pm)
Average temperature yesterday: 33 °F

High & Low Weather Summary for the Past Weeks

 TemperatureHumidityPressure
High50 °F (Jan 7, 10:20 am)100% (Jan 6, 2:50 pm)30.66 "Hg (Jan 6, 2:50 pm)
Low23 °F (Jan 21, 5:20 am)61% (Jan 11, 2:50 pm)29.45 "Hg (Jan 12, 2:20 pm)
Average41 °F91%30.25 "Hg
* Reported Jan 6 9:20 am — Jan 21 9:50 am, Newport, Weather by CustomWeather, © 2017

Note: Actual official high and low records may vary slightly from our data, if they occured in-between our weather recording intervals... More about our weather records

Advertising

Newport Weather History for the Previous 24 Hours

Scroll right to see more
 ConditionsComfort  
Time TempWeatherWind HumidityBarometerVisibility
9:50 am
Sat, Jan 21
27 °FFog.6 mph100%30.33 "Hg3 mi
9:20 am25 °FSleet. Cloudy.6 mph100%30.33 "Hg1 mi
8:50 am25 °FIce fog.6 mph93%30.33 "Hg0 mi
8:20 am25 °FIce fog.6 mph93%30.33 "Hg0 mi
7:50 am25 °FIce fog.7 mph93%30.33 "Hg0 mi
7:20 am25 °FCold.6 mph100%30.33 "Hg3 mi
6:50 am23 °FClear.6 mph93%30.33 "Hg10 mi
6:20 am23 °FClear.6 mph100%30.33 "HgN/A
5:50 am25 °FCold.5 mph93%30.33 "Hg4 mi
5:20 am23 °FIce fog.5 mph100%30.33 "Hg3 mi
4:50 am25 °FCold.5 mph100%30.36 "Hg5 mi
4:20 am25 °FIce fog.3 mph100%30.36 "Hg3 mi
3:50 am27 °FChilly.5 mph93%30.36 "HgN/A
3:20 am25 °FCold.6 mph93%30.36 "HgN/A
2:50 am25 °FCold.3 mph93%30.39 "Hg4 mi
2:20 am27 °FChilly.5 mph93%30.39 "HgN/A
1:50 am27 °FChilly.6 mph93%30.39 "HgN/A
1:20 am25 °FCold.7 mph93%30.39 "HgN/A
12:50 am25 °FCold.7 mph93%30.39 "HgN/A
12:20 am25 °FCold.6 mph93%30.39 "HgN/A
11:50 pm
Fri, Jan 20
27 °FChilly.6 mph93%30.39 "HgN/A
11:20 pm28 °FChilly.9 mph93%30.39 "HgN/A
10:50 pm30 °FChilly.13 mph86%30.39 "HgN/A
10:20 pm30 °FChilly.14 mph86%30.39 "HgN/A
9:50 pm32 °FChilly.13 mph80%30.39 "HgN/A
9:20 pm32 °FChilly.13 mph87%30.39 "HgN/A
8:50 pm32 °FChilly.14 mph87%30.39 "HgN/A
8:20 pm32 °FChilly.14 mph87%30.39 "HgN/A
7:50 pm32 °FChilly.14 mph87%30.42 "HgN/A
7:20 pm32 °FChilly.12 mph87%30.42 "HgN/A
6:50 pm34 °FChilly.9 mph75%30.42 "HgN/A
6:20 pm34 °FChilly.12 mph81%30.42 "HgN/A
5:50 pm34 °FChilly.13 mph81%30.42 "HgN/A
5:20 pm36 °FChilly.12 mph75%30.42 "HgN/A
4:50 pm36 °FChilly.12 mph75%30.42 "HgN/A
4:20 pm37 °FChilly.12 mph65%30.42 "HgN/A
3:50 pm37 °FChilly.13 mph65%30.42 "HgN/A
3:20 pm39 °FChilly.14 mph61%30.42 "HgN/A
2:50 pm39 °FChilly.14 mph65%30.42 "HgN/A
2:20 pm39 °FChilly.14 mph70%30.42 "HgN/A
1:50 pm39 °FChilly.14 mph70%30.45 "HgN/A
1:20 pm39 °FChilly.14 mph70%30.45 "HgN/A
12:50 pm37 °FChilly.14 mph75%30.45 "HgN/A
12:20 pm37 °FChilly.14 mph70%30.48 "HgN/A
11:50 am36 °FChilly.12 mph75%30.48 "HgN/A
11:20 am36 °FChilly.9 mph75%30.51 "HgN/A
Weather by CustomWeather, © 2017

See weather overviewHow to use our weather pages